Year,Month,Day,Hour,Minute,Value (Times are PST for temperature in C)
2009,05,17,00,00,12.00
2009,05,17,00,01,11.90
2009,05,17,00,02,11.90
2009,05,17,00,03,11.90
2009,05,17,00,04,11.90
2009,05,17,00,05,11.90
2009,05,17,00,06,11.90
2009,05,17,00,07,11.90
2009,05,17,00,08,11.80
2009,05,17,00,09,11.80
2009,05,17,00,10,11.80
2009,05,17,00,11,11.80
2009,05,17,00,12,11.80
2009,05,17,00,13,11.80
2009,05,17,00,14,11.80
2009,05,17,00,15,11.80
2009,05,17,00,16,11.80
2009,05,17,00,17,11.80
2009,05,17,00,18,11.80
2009,05,17,00,19,11.70
2009,05,17,00,20,11.70
2009,05,17,00,21,11.70
2009,05,17,00,22,11.70
2009,05,17,00,23,11.70
2009,05,17,00,24,11.70
2009,05,17,00,25,11.70
2009,05,17,00,26,11.60
2009,05,17,00,27,11.60
2009,05,17,00,28,11.60
2009,05,17,00,29,11.60
2009,05,17,00,30,11.60
2009,05,17,00,31,11.60
2009,05,17,00,32,11.60
2009,05,17,00,33,11.60
2009,05,17,00,34,11.60
2009,05,17,00,35,11.50
2009,05,17,00,36,11.50
2009,05,17,00,37,11.50
2009,05,17,00,38,11.50
2009,05,17,00,39,11.40
2009,05,17,00,40,11.40
2009,05,17,00,41,11.40
2009,05,17,00,42,11.40
2009,05,17,00,43,11.40
2009,05,17,00,44,11.40
2009,05,17,00,45,11.40
2009,05,17,00,46,11.40
2009,05,17,00,47,11.30
2009,05,17,00,48,11.30
2009,05,17,00,49,11.30
2009,05,17,00,50,11.30
2009,05,17,00,51,11.30
2009,05,17,00,52,11.30
2009,05,17,00,53,11.30
2009,05,17,00,54,11.30
2009,05,17,00,55,11.30
2009,05,17,00,56,11.30
2009,05,17,00,57,11.20
2009,05,17,00,58,11.20
2009,05,17,00,59,11.20
2009,05,17,01,00,11.20
2009,05,17,01,01,11.20
2009,05,17,01,02,11.20
2009,05,17,01,03,11.20
2009,05,17,01,04,11.20
2009,05,17,01,05,11.20
2009,05,17,01,06,11.20
2009,05,17,01,07,11.20
2009,05,17,01,08,11.20
2009,05,17,01,09,11.20
2009,05,17,01,10,11.20
2009,05,17,01,11,11.20
2009,05,17,01,12,11.20
2009,05,17,01,13,11.20
2009,05,17,01,14,11.20
2009,05,17,01,15,11.20
2009,05,17,01,16,11.20
2009,05,17,01,17,11.20
2009,05,17,01,18,11.10
2009,05,17,01,19,11.10
2009,05,17,01,20,11.10
2009,05,17,01,21,11.10
2009,05,17,01,22,11.10
2009,05,17,01,23,11.10
2009,05,17,01,24,11.10
2009,05,17,01,25,11.10
2009,05,17,01,26,11.10
2009,05,17,01,27,11.10
2009,05,17,01,28,11.10
2009,05,17,01,29,11.10
2009,05,17,01,30,11.10
2009,05,17,01,31,11.10
2009,05,17,01,32,11.10
2009,05,17,01,33,11.10
2009,05,17,01,34,11.10
2009,05,17,01,35,11.10
2009,05,17,01,36,11.10
2009,05,17,01,37,11.00
2009,05,17,01,38,11.00
2009,05,17,01,39,11.10
2009,05,17,01,40,11.00
2009,05,17,01,41,11.00
2009,05,17,01,42,11.00
2009,05,17,01,43,11.00
2009,05,17,01,44,11.00
2009,05,17,01,45,11.00
2009,05,17,01,46,11.00
2009,05,17,01,47,11.00
2009,05,17,01,48,11.00
2009,05,17,01,49,11.00
2009,05,17,01,50,11.00
2009,05,17,01,51,11.00
2009,05,17,01,52,11.00
2009,05,17,01,53,11.00
2009,05,17,01,54,11.00
2009,05,17,01,55,11.00
2009,05,17,01,56,11.00
2009,05,17,01,57,11.00
2009,05,17,01,58,11.00
2009,05,17,01,59,11.00
2009,05,17,02,00,11.00
2009,05,17,02,01,11.00
2009,05,17,02,02,11.00
2009,05,17,02,03,11.00
2009,05,17,02,04,11.00
2009,05,17,02,05,11.00
2009,05,17,02,06,11.00
2009,05,17,02,07,11.00
2009,05,17,02,08,11.00
2009,05,17,02,09,11.00
2009,05,17,02,10,11.00
2009,05,17,02,11,11.00
2009,05,17,02,12,11.00
2009,05,17,02,13,11.00
2009,05,17,02,14,11.00
2009,05,17,02,15,11.00
2009,05,17,02,16,11.00
2009,05,17,02,17,11.00
2009,05,17,02,18,11.00
2009,05,17,02,19,11.00
2009,05,17,02,20,11.00
2009,05,17,02,21,11.00
2009,05,17,02,22,11.10
2009,05,17,02,23,11.10
2009,05,17,02,24,11.10
2009,05,17,02,25,11.10
2009,05,17,02,26,11.10
2009,05,17,02,27,11.10
2009,05,17,02,28,11.10
2009,05,17,02,29,11.10
2009,05,17,02,30,11.10
2009,05,17,02,31,11.10
2009,05,17,02,32,11.10
2009,05,17,02,33,11.10
2009,05,17,02,34,11.10
2009,05,17,02,35,11.10
2009,05,17,02,36,11.10
2009,05,17,02,37,11.10
2009,05,17,02,38,11.10
2009,05,17,02,39,11.10
2009,05,17,02,40,11.10
2009,05,17,02,41,11.10
2009,05,17,02,42,11.10
2009,05,17,02,43,11.10
2009,05,17,02,44,11.10
2009,05,17,02,45,11.10
2009,05,17,02,46,11.10
2009,05,17,02,47,11.10
2009,05,17,02,48,11.10
2009,05,17,02,49,11.10
2009,05,17,02,50,11.10
2009,05,17,02,51,11.10
2009,05,17,02,52,11.10
2009,05,17,02,53,11.10
2009,05,17,02,54,11.10
2009,05,17,02,55,11.10
2009,05,17,02,56,11.10
2009,05,17,02,57,11.10
2009,05,17,02,58,11.10
2009,05,17,02,59,11.10
2009,05,17,03,00,11.10
2009,05,17,03,01,11.10
2009,05,17,03,02,11.10
2009,05,17,03,03,11.10
2009,05,17,03,04,11.10
2009,05,17,03,05,11.10
2009,05,17,03,06,11.10
2009,05,17,03,07,11.10
2009,05,17,03,08,11.10
2009,05,17,03,09,11.10
2009,05,17,03,10,11.10
2009,05,17,03,11,11.10
2009,05,17,03,12,11.10
2009,05,17,03,13,11.10
2009,05,17,03,14,11.10
2009,05,17,03,15,11.10
2009,05,17,03,16,11.10
2009,05,17,03,17,11.10
2009,05,17,03,18,11.10
2009,05,17,03,19,11.10
2009,05,17,03,20,11.10
2009,05,17,03,21,11.10
2009,05,17,03,22,11.10
2009,05,17,03,23,11.10
2009,05,17,03,24,11.10
2009,05,17,03,25,11.10
2009,05,17,03,26,11.10
2009,05,17,03,27,11.10
2009,05,17,03,28,11.10
2009,05,17,03,29,11.10
2009,05,17,03,30,11.10
2009,05,17,03,31,11.10
2009,05,17,03,32,11.10
2009,05,17,03,33,11.10
2009,05,17,03,34,11.10
2009,05,17,03,35,11.10
2009,05,17,03,36,11.10
2009,05,17,03,37,11.10
2009,05,17,03,38,11.10
2009,05,17,03,39,11.10
2009,05,17,03,40,11.10
2009,05,17,03,41,11.10
2009,05,17,03,42,11.10
2009,05,17,03,43,11.10
2009,05,17,03,44,11.10
2009,05,17,03,45,11.10
2009,05,17,03,46,11.10
2009,05,17,03,47,11.10
2009,05,17,03,48,11.10
2009,05,17,03,49,11.10
2009,05,17,03,50,11.10
2009,05,17,03,51,11.10
2009,05,17,03,52,11.10
2009,05,17,03,53,11.10
2009,05,17,03,54,11.10
2009,05,17,03,55,11.10
2009,05,17,03,56,11.10
2009,05,17,03,57,11.10
2009,05,17,03,58,11.10
2009,05,17,03,59,11.10
2009,05,17,04,00,11.10
2009,05,17,04,01,11.10
2009,05,17,04,02,11.10
2009,05,17,04,03,11.10
2009,05,17,04,04,11.10
2009,05,17,04,05,11.10
2009,05,17,04,06,11.10
2009,05,17,04,07,11.10
2009,05,17,04,08,11.10
2009,05,17,04,09,11.10
2009,05,17,04,10,11.10
2009,05,17,04,11,11.10
2009,05,17,04,12,11.10
2009,05,17,04,13,11.10
2009,05,17,04,14,11.10
2009,05,17,04,15,11.10
2009,05,17,04,16,11.10
2009,05,17,04,17,11.10
2009,05,17,04,18,11.10
2009,05,17,04,19,11.10
2009,05,17,04,20,11.10
2009,05,17,04,21,11.10
2009,05,17,04,22,11.10
2009,05,17,04,23,11.10
2009,05,17,04,24,11.10
2009,05,17,04,25,11.10
2009,05,17,04,26,11.00
2009,05,17,04,27,11.00
2009,05,17,04,28,11.00
2009,05,17,04,29,11.00
2009,05,17,04,30,11.00
2009,05,17,04,31,11.00
2009,05,17,04,32,10.90
2009,05,17,04,33,10.90
2009,05,17,04,34,10.90
2009,05,17,04,35,10.90
2009,05,17,04,36,10.90
2009,05,17,04,37,10.90
2009,05,17,04,38,10.90
2009,05,17,04,39,10.90
2009,05,17,04,40,10.90
2009,05,17,04,41,10.90
2009,05,17,04,42,10.90
2009,05,17,04,43,10.90
2009,05,17,04,44,10.90
2009,05,17,04,45,10.90
2009,05,17,04,46,10.90
2009,05,17,04,47,10.90
2009,05,17,04,48,10.90
2009,05,17,04,49,10.90
2009,05,17,04,50,10.90
2009,05,17,04,51,10.90
2009,05,17,04,52,10.90
2009,05,17,04,53,10.90
2009,05,17,04,54,10.90
2009,05,17,04,55,10.90
2009,05,17,04,56,10.90
2009,05,17,04,57,10.90
2009,05,17,04,58,10.90
2009,05,17,04,59,10.90
2009,05,17,05,00,10.90
2009,05,17,05,01,10.90
2009,05,17,05,02,10.90
2009,05,17,05,03,10.90
2009,05,17,05,04,10.90
2009,05,17,05,05,10.80
2009,05,17,05,06,10.80
2009,05,17,05,07,10.80
2009,05,17,05,08,10.80
2009,05,17,05,09,10.80
2009,05,17,05,10,10.80
2009,05,17,05,11,10.80
2009,05,17,05,12,10.80
2009,05,17,05,13,10.80
2009,05,17,05,14,10.80
2009,05,17,05,15,10.80
2009,05,17,05,16,10.70
2009,05,17,05,17,10.70
2009,05,17,05,18,10.70
2009,05,17,05,19,10.70
2009,05,17,05,20,10.70
2009,05,17,05,21,10.70
2009,05,17,05,22,10.70
2009,05,17,05,23,10.70
2009,05,17,05,24,10.70
2009,05,17,05,25,10.70
2009,05,17,05,26,10.70
2009,05,17,05,27,10.70
2009,05,17,05,28,10.70
2009,05,17,05,29,10.70
2009,05,17,05,30,10.70
2009,05,17,05,31,10.70
2009,05,17,05,32,10.70
2009,05,17,05,33,10.70
2009,05,17,05,34,10.70
2009,05,17,05,35,10.70
2009,05,17,05,36,10.70
2009,05,17,05,37,10.70
2009,05,17,05,38,10.70
2009,05,17,05,39,10.70
2009,05,17,05,40,10.70
2009,05,17,05,41,10.70
2009,05,17,05,42,10.70
2009,05,17,05,43,10.70
2009,05,17,05,44,10.70
2009,05,17,05,45,10.70
2009,05,17,05,46,10.70
2009,05,17,05,47,10.70
2009,05,17,05,48,10.80
2009,05,17,05,49,10.80
2009,05,17,05,50,10.80
2009,05,17,05,51,10.80
2009,05,17,05,52,10.80
2009,05,17,05,53,10.90
2009,05,17,05,54,10.90
2009,05,17,05,55,10.90
2009,05,17,05,56,10.90
2009,05,17,05,57,10.90
2009,05,17,05,58,10.90
2009,05,17,05,59,10.90
2009,05,17,06,00,10.90
2009,05,17,06,01,10.90
2009,05,17,06,02,11.00
2009,05,17,06,03,11.00
2009,05,17,06,04,11.00
2009,05,17,06,05,11.10
2009,05,17,06,06,11.10
2009,05,17,06,07,11.10
2009,05,17,06,08,11.10
2009,05,17,06,09,11.10
2009,05,17,06,10,11.10
2009,05,17,06,11,11.10
2009,05,17,06,12,11.10
2009,05,17,06,13,11.10
2009,05,17,06,14,11.10
2009,05,17,06,15,11.10
2009,05,17,06,16,11.10
2009,05,17,06,17,11.10
2009,05,17,06,18,11.10
2009,05,17,06,19,11.10
2009,05,17,06,20,11.10
2009,05,17,06,21,11.10
2009,05,17,06,22,11.10
2009,05,17,06,23,11.10
2009,05,17,06,24,11.20
2009,05,17,06,25,11.10
2009,05,17,06,26,11.10
2009,05,17,06,27,11.10
2009,05,17,06,28,11.10
2009,05,17,06,29,11.20
2009,05,17,06,30,11.20
2009,05,17,06,31,11.20
2009,05,17,06,32,11.20
2009,05,17,06,33,11.20
2009,05,17,06,34,11.20
2009,05,17,06,35,11.20
2009,05,17,06,36,11.20
2009,05,17,06,37,11.20
2009,05,17,06,38,11.20
2009,05,17,06,39,11.20
2009,05,17,06,40,11.20
2009,05,17,06,41,11.20
2009,05,17,06,42,11.20
2009,05,17,06,43,11.20
2009,05,17,06,44,11.20
2009,05,17,06,45,11.20
2009,05,17,06,46,11.20
2009,05,17,06,47,11.20
2009,05,17,06,48,11.20
2009,05,17,06,49,11.20
2009,05,17,06,50,11.20
2009,05,17,06,51,11.20
2009,05,17,06,52,11.20
2009,05,17,06,53,11.30
2009,05,17,06,54,11.30
2009,05,17,06,55,11.30
2009,05,17,06,56,11.30
2009,05,17,06,57,11.30
2009,05,17,06,58,11.30
2009,05,17,06,59,11.30
2009,05,17,07,00,11.30
2009,05,17,07,01,11.30
2009,05,17,07,02,11.30
2009,05,17,07,03,11.30
2009,05,17,07,04,11.30
2009,05,17,07,05,11.30
2009,05,17,07,06,11.30
2009,05,17,07,07,11.30
2009,05,17,07,08,11.30
2009,05,17,07,09,11.30
2009,05,17,07,10,11.30
2009,05,17,07,11,11.30
2009,05,17,07,12,11.30
2009,05,17,07,13,11.30
2009,05,17,07,14,11.30
2009,05,17,07,15,11.30
2009,05,17,07,16,11.30
2009,05,17,07,17,11.30
2009,05,17,07,18,11.40
2009,05,17,07,19,11.40
2009,05,17,07,20,11.40
2009,05,17,07,21,11.40
2009,05,17,07,22,11.40
2009,05,17,07,23,11.40
2009,05,17,07,24,11.40
2009,05,17,07,25,11.50
2009,05,17,07,26,11.50
2009,05,17,07,27,11.50
2009,05,17,07,28,11.50
2009,05,17,07,29,11.60
2009,05,17,07,30,11.60
2009,05,17,07,31,11.60
2009,05,17,07,32,11.70
2009,05,17,07,33,11.70
2009,05,17,07,34,11.70
2009,05,17,07,35,11.70
2009,05,17,07,36,11.80
2009,05,17,07,37,11.80
2009,05,17,07,38,11.80
2009,05,17,07,39,11.80
2009,05,17,07,40,11.90
2009,05,17,07,41,11.90
2009,05,17,07,42,11.90
2009,05,17,07,43,12.00
2009,05,17,07,44,12.00
2009,05,17,07,45,12.10
2009,05,17,07,46,12.10
2009,05,17,07,47,12.10
2009,05,17,07,48,12.20
2009,05,17,07,49,12.20
2009,05,17,07,50,12.20
2009,05,17,07,51,12.30
2009,05,17,07,52,12.30
2009,05,17,07,53,12.30
2009,05,17,07,54,12.40
2009,05,17,07,55,12.40
2009,05,17,07,56,12.40
2009,05,17,07,57,12.40
2009,05,17,07,58,12.50
2009,05,17,07,59,12.50
2009,05,17,08,00,12.50
2009,05,17,08,01,12.50
2009,05,17,08,02,12.60
2009,05,17,08,03,12.60
2009,05,17,08,04,12.60
2009,05,17,08,05,12.70
2009,05,17,08,06,12.70
2009,05,17,08,07,12.70
2009,05,17,08,08,12.80
2009,05,17,08,09,12.80
2009,05,17,08,10,12.80
2009,05,17,08,11,12.80
2009,05,17,08,12,12.80
2009,05,17,08,13,12.80
2009,05,17,08,14,12.90
2009,05,17,08,15,12.90
2009,05,17,08,16,12.90
2009,05,17,08,17,12.90
2009,05,17,08,18,13.00
2009,05,17,08,19,13.00
2009,05,17,08,20,13.10
2009,05,17,08,21,13.10
2009,05,17,08,22,13.10
2009,05,17,08,23,13.10
2009,05,17,08,24,13.20
2009,05,17,08,25,13.20
2009,05,17,08,26,13.20
2009,05,17,08,27,13.20
2009,05,17,08,28,13.30
2009,05,17,08,29,13.30
2009,05,17,08,30,13.30
2009,05,17,08,31,13.40
2009,05,17,08,32,13.40
2009,05,17,08,33,13.40
2009,05,17,08,34,13.50
2009,05,17,08,35,13.50
2009,05,17,08,36,13.60
2009,05,17,08,37,13.60
2009,05,17,08,38,13.70
2009,05,17,08,39,13.70
2009,05,17,08,40,13.70
2009,05,17,08,41,13.80
2009,05,17,08,42,13.80
2009,05,17,08,43,13.80
2009,05,17,08,44,13.90
2009,05,17,08,45,13.90
2009,05,17,08,46,14.00
2009,05,17,08,47,14.00
2009,05,17,08,48,14.10
2009,05,17,08,49,14.10
2009,05,17,08,50,14.20
2009,05,17,08,51,14.20
2009,05,17,08,52,14.30
2009,05,17,08,53,14.30
2009,05,17,08,54,14.40
2009,05,17,08,55,14.40
2009,05,17,08,56,14.40
2009,05,17,08,57,14.50
2009,05,17,08,58,14.60
2009,05,17,08,59,14.60
2009,05,17,09,00,14.60
2009,05,17,09,01,14.70
2009,05,17,09,02,14.70
2009,05,17,09,03,14.80
2009,05,17,09,04,14.80
2009,05,17,09,05,14.90
2009,05,17,09,06,15.00
2009,05,17,09,07,15.00
2009,05,17,09,08,15.00
2009,05,17,09,09,15.00
2009,05,17,09,10,15.00
2009,05,17,09,11,15.00
2009,05,17,09,12,15.00
2009,05,17,09,13,15.00
2009,05,17,09,14,15.10
2009,05,17,09,15,15.20
2009,05,17,09,16,15.20
2009,05,17,09,17,15.30
2009,05,17,09,18,15.30
2009,05,17,09,19,15.40
2009,05,17,09,20,15.40
2009,05,17,09,21,15.50
2009,05,17,09,22,15.50
2009,05,17,09,23,15.60
2009,05,17,09,24,15.70
2009,05,17,09,25,15.80
2009,05,17,09,26,15.80
2009,05,17,09,27,15.90
2009,05,17,09,28,15.90
2009,05,17,09,29,16.00
2009,05,17,09,30,16.10
2009,05,17,09,31,16.10
2009,05,17,09,32,16.20
2009,05,17,09,33,16.30
2009,05,17,09,34,16.30
2009,05,17,09,35,16.40
2009,05,17,09,36,16.40
2009,05,17,09,37,16.50
2009,05,17,09,38,16.60
2009,05,17,09,39,16.60
2009,05,17,09,40,16.70
2009,05,17,09,41,16.70
2009,05,17,09,42,16.80
2009,05,17,09,43,16.80
2009,05,17,09,44,16.90
2009,05,17,09,45,16.90
2009,05,17,09,46,17.00
2009,05,17,09,47,17.00
2009,05,17,09,48,17.10
2009,05,17,09,49,17.10
2009,05,17,09,50,17.20
2009,05,17,09,51,17.20
2009,05,17,09,52,17.30
2009,05,17,09,53,17.30
2009,05,17,09,54,17.30
2009,05,17,09,55,17.40
2009,05,17,09,56,17.40
2009,05,17,09,57,17.50
2009,05,17,09,58,17.50
2009,05,17,09,59,17.60
2009,05,17,10,00,17.60
2009,05,17,10,01,17.60
2009,05,17,10,02,17.70
2009,05,17,10,03,17.70
2009,05,17,10,04,17.70
2009,05,17,10,05,17.70
2009,05,17,10,06,17.80
2009,05,17,10,07,17.80
2009,05,17,10,08,17.80
2009,05,17,10,09,17.80
2009,05,17,10,10,17.90
2009,05,17,10,11,17.90
2009,05,17,10,12,17.90
2009,05,17,10,13,17.90
2009,05,17,10,14,18.00
2009,05,17,10,15,18.00
2009,05,17,10,16,18.10
2009,05,17,10,17,18.10
2009,05,17,10,18,18.20
2009,05,17,10,19,18.20
2009,05,17,10,20,18.20
2009,05,17,10,21,18.30
2009,05,17,10,22,18.30
2009,05,17,10,23,18.40
2009,05,17,10,24,18.50
2009,05,17,10,25,18.60
2009,05,17,10,26,18.60
2009,05,17,10,27,18.70
2009,05,17,10,28,18.70
2009,05,17,10,29,18.80
2009,05,17,10,30,18.80
2009,05,17,10,31,18.90
2009,05,17,10,32,19.00
2009,05,17,10,33,19.10
2009,05,17,10,34,19.20
2009,05,17,10,35,19.30
2009,05,17,10,36,19.40
2009,05,17,10,37,19.50
2009,05,17,10,38,19.50
2009,05,17,10,39,19.60
2009,05,17,10,40,19.70
2009,05,17,10,41,19.70
2009,05,17,10,42,19.70
2009,05,17,10,43,19.80
2009,05,17,10,44,19.80
2009,05,17,10,45,19.80
2009,05,17,10,46,19.80
2009,05,17,10,47,19.90
2009,05,17,10,48,19.90
2009,05,17,10,49,20.00
2009,05,17,10,50,20.00
2009,05,17,10,51,20.00
2009,05,17,10,52,20.10
2009,05,17,10,53,20.10
2009,05,17,10,54,20.10
2009,05,17,10,55,20.10
2009,05,17,10,56,20.10
2009,05,17,10,57,20.20
2009,05,17,10,58,20.20
2009,05,17,10,59,20.20
2009,05,17,11,00,20.30
2009,05,17,11,01,20.30
2009,05,17,11,02,20.30
2009,05,17,11,03,20.40
2009,05,17,11,04,20.40
2009,05,17,11,05,20.40
2009,05,17,11,06,20.40
2009,05,17,11,07,20.50
2009,05,17,11,08,20.50
2009,05,17,11,09,20.60
2009,05,17,11,10,20.60
2009,05,17,11,11,20.60
2009,05,17,11,12,20.70
2009,05,17,11,13,20.70
2009,05,17,11,14,20.70
2009,05,17,11,15,20.80
2009,05,17,11,16,20.80
2009,05,17,11,17,20.90
2009,05,17,11,18,20.90
2009,05,17,11,19,20.90
2009,05,17,11,20,21.00
2009,05,17,11,21,21.00
2009,05,17,11,22,21.00
2009,05,17,11,23,21.10
2009,05,17,11,24,21.10
2009,05,17,11,25,21.10
2009,05,17,11,26,21.10
2009,05,17,11,27,21.20
2009,05,17,11,28,21.20
2009,05,17,11,29,21.20
2009,05,17,11,30,21.30
2009,05,17,11,31,21.30
2009,05,17,11,32,21.40
2009,05,17,11,33,21.40
2009,05,17,11,34,21.50
2009,05,17,11,35,21.60
2009,05,17,11,36,21.70
2009,05,17,11,37,21.70
2009,05,17,11,38,21.80
2009,05,17,11,39,21.80
2009,05,17,11,40,21.90
2009,05,17,11,41,21.90
2009,05,17,11,42,21.90
2009,05,17,11,43,21.80
2009,05,17,11,44,21.90
2009,05,17,11,45,21.90
2009,05,17,11,46,21.90
2009,05,17,11,47,22.00
2009,05,17,11,48,22.00
2009,05,17,11,49,22.00
2009,05,17,11,50,22.00
2009,05,17,11,51,22.10
2009,05,17,11,52,22.00
2009,05,17,11,53,21.90
2009,05,17,11,54,21.90
2009,05,17,11,55,21.80
2009,05,17,11,56,21.80
2009,05,17,11,57,21.70
2009,05,17,11,58,21.60
2009,05,17,11,59,21.50
2009,05,17,12,00,21.40
2009,05,17,12,01,21.30
2009,05,17,12,02,21.30
2009,05,17,12,03,21.20
2009,05,17,12,04,21.10
2009,05,17,12,05,21.10
2009,05,17,12,06,21.00
2009,05,17,12,07,21.00
2009,05,17,12,08,20.90
2009,05,17,12,09,20.90
2009,05,17,12,10,20.90
2009,05,17,12,11,21.00
2009,05,17,12,12,21.00
2009,05,17,12,13,21.10
2009,05,17,12,14,21.20
2009,05,17,12,15,21.20
2009,05,17,12,16,21.30
2009,05,17,12,17,21.40
2009,05,17,12,18,21.50
2009,05,17,12,19,21.60
2009,05,17,12,20,21.70
2009,05,17,12,21,21.70
2009,05,17,12,22,21.70
2009,05,17,12,23,21.80
2009,05,17,12,24,21.80
2009,05,17,12,25,21.80
2009,05,17,12,26,21.80
2009,05,17,12,27,21.70
2009,05,17,12,28,21.70
2009,05,17,12,29,21.70
2009,05,17,12,30,21.70
2009,05,17,12,31,21.60
2009,05,17,12,32,21.60
2009,05,17,12,33,21.60
2009,05,17,12,34,21.60
2009,05,17,12,35,21.70
2009,05,17,12,36,21.70
2009,05,17,12,37,21.70
2009,05,17,12,38,21.70
2009,05,17,12,39,21.70
2009,05,17,12,40,21.70
2009,05,17,12,41,21.70
2009,05,17,12,42,21.70
2009,05,17,12,43,21.60
2009,05,17,12,44,21.60
2009,05,17,12,45,21.50
2009,05,17,12,46,21.50
2009,05,17,12,47,21.50
2009,05,17,12,48,21.50
2009,05,17,12,49,21.50
2009,05,17,12,50,21.50
2009,05,17,12,51,21.50
2009,05,17,12,52,21.60
2009,05,17,12,53,21.60
2009,05,17,12,54,21.70
2009,05,17,12,55,21.80
2009,05,17,12,56,21.90
2009,05,17,12,57,22.00
2009,05,17,12,58,22.10
2009,05,17,12,59,22.20
2009,05,17,13,00,22.30
2009,05,17,13,01,22.50
2009,05,17,13,02,22.60
2009,05,17,13,03,22.70
2009,05,17,13,04,22.80
2009,05,17,13,05,22.80
2009,05,17,13,06,22.90
2009,05,17,13,07,22.90
2009,05,17,13,08,22.90
2009,05,17,13,09,22.80
2009,05,17,13,10,22.80
2009,05,17,13,11,22.80
2009,05,17,13,12,22.70
2009,05,17,13,13,22.70
2009,05,17,13,14,22.60
2009,05,17,13,15,22.40
2009,05,17,13,16,22.30
2009,05,17,13,17,22.30
2009,05,17,13,18,22.20
2009,05,17,13,19,22.20
2009,05,17,13,20,22.20
2009,05,17,13,21,22.20
2009,05,17,13,22,22.20
2009,05,17,13,23,22.30
2009,05,17,13,24,22.40
2009,05,17,13,25,22.40
2009,05,17,13,26,22.50
2009,05,17,13,27,22.60
2009,05,17,13,28,22.70
2009,05,17,13,29,22.80
2009,05,17,13,30,22.90
2009,05,17,13,31,23.00
2009,05,17,13,32,23.00
2009,05,17,13,33,23.10
2009,05,17,13,34,23.10
2009,05,17,13,35,23.10
2009,05,17,13,36,23.10
2009,05,17,13,37,23.10
2009,05,17,13,38,23.10
2009,05,17,13,39,23.20
2009,05,17,13,40,23.20
2009,05,17,13,41,23.20
2009,05,17,13,42,23.30
2009,05,17,13,43,23.40
2009,05,17,13,44,23.40
2009,05,17,13,45,23.50
2009,05,17,13,46,23.70
2009,05,17,13,47,23.80
2009,05,17,13,48,23.90
2009,05,17,13,49,24.10
2009,05,17,13,50,24.20
2009,05,17,13,51,24.10
2009,05,17,13,52,24.10
2009,05,17,13,53,24.10
2009,05,17,13,54,24.20
2009,05,17,13,55,24.20
2009,05,17,13,56,24.20
2009,05,17,13,57,24.20
2009,05,17,13,58,24.20
2009,05,17,13,59,24.30
2009,05,17,14,00,24.30
2009,05,17,14,01,24.30
2009,05,17,14,02,24.40
2009,05,17,14,03,24.40
2009,05,17,14,04,24.40
2009,05,17,14,05,24.40
2009,05,17,14,06,24.40
2009,05,17,14,07,24.40
2009,05,17,14,08,24.40
2009,05,17,14,09,24.50
2009,05,17,14,10,24.60
2009,05,17,14,11,24.60
2009,05,17,14,12,24.60
2009,05,17,14,13,24.60
2009,05,17,14,14,24.50
2009,05,17,14,15,24.40
2009,05,17,14,16,24.40
2009,05,17,14,17,24.30
2009,05,17,14,18,24.30
2009,05,17,14,19,24.30
2009,05,17,14,20,24.20
2009,05,17,14,21,24.30
2009,05,17,14,22,24.30
2009,05,17,14,23,24.40
2009,05,17,14,24,24.40
2009,05,17,14,25,24.50
2009,05,17,14,26,24.50
2009,05,17,14,27,24.60
2009,05,17,14,28,24.70
2009,05,17,14,29,24.70
2009,05,17,14,30,24.80
2009,05,17,14,31,25.00
2009,05,17,14,32,25.10
2009,05,17,14,33,25.10
2009,05,17,14,34,25.10
2009,05,17,14,35,25.10
2009,05,17,14,36,25.10
2009,05,17,14,37,25.10
2009,05,17,14,38,25.10
2009,05,17,14,39,25.10
2009,05,17,14,40,25.10
2009,05,17,14,41,25.10
2009,05,17,14,42,25.10
2009,05,17,14,43,25.10
2009,05,17,14,44,25.10
2009,05,17,14,45,25.10
2009,05,17,14,46,25.10
2009,05,17,14,47,25.10
2009,05,17,14,48,25.10
2009,05,17,14,49,25.10
2009,05,17,14,50,25.10
2009,05,17,14,51,25.10
2009,05,17,14,52,25.10
2009,05,17,14,53,25.20
2009,05,17,14,54,25.20
2009,05,17,14,55,25.10
2009,05,17,14,56,25.10
2009,05,17,14,57,25.10
2009,05,17,14,58,25.10
2009,05,17,14,59,25.10
2009,05,17,15,00,25.10
2009,05,17,15,01,25.10
2009,05,17,15,02,25.00
2009,05,17,15,03,25.00
2009,05,17,15,04,25.00
2009,05,17,15,05,25.00
2009,05,17,15,06,25.00
2009,05,17,15,07,25.00
2009,05,17,15,08,25.10
2009,05,17,15,09,25.10
2009,05,17,15,10,25.10
2009,05,17,15,11,25.10
2009,05,17,15,12,25.10
2009,05,17,15,13,25.10
2009,05,17,15,14,25.10
2009,05,17,15,15,25.00
2009,05,17,15,16,24.90
2009,05,17,15,17,24.90
2009,05,17,15,18,24.80
2009,05,17,15,19,24.80
2009,05,17,15,20,24.80
2009,05,17,15,21,24.70
2009,05,17,15,22,24.70
2009,05,17,15,23,24.60
2009,05,17,15,24,24.50
2009,05,17,15,25,24.50
2009,05,17,15,26,24.50
2009,05,17,15,27,24.40
2009,05,17,15,28,24.40
2009,05,17,15,29,24.30
2009,05,17,15,30,24.30
2009,05,17,15,31,24.30
2009,05,17,15,32,24.30
2009,05,17,15,33,24.30
2009,05,17,15,34,24.30
2009,05,17,15,35,24.30
2009,05,17,15,36,24.30
2009,05,17,15,37,24.30
2009,05,17,15,38,24.40
2009,05,17,15,39,24.40
2009,05,17,15,40,24.40
2009,05,17,15,41,24.40
2009,05,17,15,42,24.50
2009,05,17,15,43,24.50
2009,05,17,15,44,24.60
2009,05,17,15,45,24.70
2009,05,17,15,46,24.80
2009,05,17,15,47,24.90
2009,05,17,15,48,25.00
2009,05,17,15,49,25.10
2009,05,17,15,50,25.10
2009,05,17,15,51,25.10
2009,05,17,15,52,25.20
2009,05,17,15,53,25.20
2009,05,17,15,54,25.10
2009,05,17,15,55,25.10
2009,05,17,15,56,25.10
2009,05,17,15,57,25.00
2009,05,17,15,58,24.90
2009,05,17,15,59,24.80
2009,05,17,16,00,24.60
2009,05,17,16,01,24.50
2009,05,17,16,02,24.40
2009,05,17,16,03,24.40
2009,05,17,16,04,24.40
2009,05,17,16,05,24.40
2009,05,17,16,06,24.40
2009,05,17,16,07,24.30
2009,05,17,16,08,24.30
2009,05,17,16,09,24.30
2009,05,17,16,10,24.20
2009,05,17,16,11,24.20
2009,05,17,16,12,24.10
2009,05,17,16,13,24.10
2009,05,17,16,14,24.00
2009,05,17,16,15,24.00
2009,05,17,16,16,23.90
2009,05,17,16,17,23.80
2009,05,17,16,18,23.70
2009,05,17,16,19,23.60
2009,05,17,16,20,23.50
2009,05,17,16,21,23.40
2009,05,17,16,22,23.30
2009,05,17,16,23,23.20
2009,05,17,16,24,23.10
2009,05,17,16,25,23.10
2009,05,17,16,26,23.00
2009,05,17,16,27,22.90
2009,05,17,16,28,22.90
2009,05,17,16,29,22.90
2009,05,17,16,30,22.90
2009,05,17,16,31,22.90
2009,05,17,16,32,22.90
2009,05,17,16,33,22.90
2009,05,17,16,34,22.90
2009,05,17,16,35,22.90
2009,05,17,16,36,22.90
2009,05,17,16,37,22.90
2009,05,17,16,38,22.90
2009,05,17,16,39,22.90
2009,05,17,16,40,22.90
2009,05,17,16,41,23.00
2009,05,17,16,42,23.00
2009,05,17,16,43,23.00
2009,05,17,16,44,23.00
2009,05,17,16,45,23.10
2009,05,17,16,46,23.10
2009,05,17,16,47,23.20
2009,05,17,16,48,23.30
2009,05,17,16,49,23.30
2009,05,17,16,50,23.40
2009,05,17,16,51,23.50
2009,05,17,16,52,23.50
2009,05,17,16,53,23.60
2009,05,17,16,54,23.60
2009,05,17,16,55,23.60
2009,05,17,16,56,23.60
2009,05,17,16,57,23.60
2009,05,17,16,58,23.60
2009,05,17,16,59,23.60
2009,05,17,17,00,23.50
2009,05,17,17,01,23.40
2009,05,17,17,02,23.40
2009,05,17,17,03,23.50
2009,05,17,17,04,23.50
2009,05,17,17,05,23.50
2009,05,17,17,06,23.50
2009,05,17,17,07,23.60
2009,05,17,17,08,23.60
2009,05,17,17,09,23.60
2009,05,17,17,10,23.60
2009,05,17,17,11,23.70
2009,05,17,17,12,23.70
2009,05,17,17,13,23.70
2009,05,17,17,14,23.80
2009,05,17,17,15,23.80
2009,05,17,17,16,23.90
2009,05,17,17,17,23.90
2009,05,17,17,18,23.90
2009,05,17,17,19,23.90